Home   Weather   Norway   Hellesøy   Past weeks
Flag for Norway

Past Weather in Hellesøy, Norway — Yesterday and Last 2 Weeks

Currently: 61 °F. Partly sunny. (Weather station: Bergen / Flesland, Norway). See more current weather

Past Weather in Hellesøy — Graph

°F

Hellesøy Temperature Yesterday

Maximum temperature yesterday: 55 °F (at 2:50 pm)
Minimum temperature yesterday: 45 °F (at 2:20 am)
Average temperature yesterday: 49 °F

High & Low Weather Summary for the Past Weeks

 TemperatureHumidityPressure
High61 °F (May 14, 1:50 pm)100% (May 7, 3:50 am)29.98 "Hg (May 7, 3:50 am)
Low32 °F (Apr 30, 5:50 am)31% (May 5, 1:50 pm)29.30 "Hg (May 4, 7:20 pm)
Average47 °F71%29.70 "Hg
* Reported Apr 29 2:20 pm — May 14 2:20 pm, Hellesøy. Weather by CustomWeather, © 2021

Note: Actual official high and low records may vary slightly from our data, if they occured in-between our weather recording intervals... More about our weather records

Hellesøy Weather History for the Previous 24 Hours

Scroll right to see more
 ConditionsComfort  
Time TempWeatherWind HumidityBarometerVisibility
2:20 pm
Fri, May 14
61 °FPartly sunny.5 mph68%29.65 "HgN/A
1:50 pm61 °FPartly sunny.3 mph68%29.65 "HgN/A
1:20 pm57 °FPartly sunny.3 mph77%29.65 "HgN/A
12:50 pm57 °FSprinkles. Partly sunny.2 mph82%29.65 "HgN/A
12:20 pm57 °FSprinkles. Partly sunny.1 mph77%29.65 "HgN/A
11:50 am57 °FPartly sunny.1 mph72%29.65 "HgN/A
11:20 am55 °FPartly sunny.2 mph77%29.65 "HgN/A
10:50 am54 °FPartly sunny.2 mph88%29.65 "HgN/A
10:20 am54 °FPartly sunny.2 mph88%29.65 "HgN/A
9:50 am52 °FPartly sunny.1 mph94%29.65 "HgN/A
9:20 am50 °FPartly sunny.2 mph94%29.65 "HgN/A
8:50 am50 °FPartly sunny.3 mph94%29.65 "HgN/A
8:20 am50 °FPartly sunny.2 mph94%29.65 "HgN/A
7:50 am50 °FPartly sunny.5 mph94%29.65 "HgN/A
7:20 am50 °FPartly sunny.3 mph94%29.65 "HgN/A
6:50 am50 °FPartly sunny.3 mph88%29.65 "HgN/A
6:20 am50 °FScattered clouds.2 mph88%29.65 "HgN/A
5:50 am48 °FSunny.2 mph94%29.65 "Hg10 mi
5:20 am48 °FSunny.2 mph94%29.65 "Hg10 mi
4:50 am48 °FClear.2 mph94%29.65 "Hg10 mi
3:50 am48 °FClear.3 mph94%29.68 "Hg10 mi
3:20 am48 °FClear.2 mph94%29.68 "Hg10 mi
2:50 am48 °FClear.3 mph94%29.68 "Hg10 mi
2:20 am50 °FClear.No wind88%29.68 "Hg10 mi
1:50 am48 °FClear.1 mph94%29.68 "Hg10 mi
1:20 am50 °FClear.1 mph88%29.71 "Hg10 mi
12:50 am50 °FClear.3 mph88%29.71 "Hg10 mi
12:20 am48 °FClear.3 mph94%29.71 "Hg10 mi
11:50 pm
Thu, May 13
50 °FClear.2 mph88%29.71 "Hg10 mi
11:20 pm50 °FClear.5 mph82%29.71 "Hg10 mi
10:50 pm50 °FPassing clouds.5 mph88%29.74 "HgN/A
10:20 pm52 °FClear.6 mph82%29.74 "Hg10 mi
9:50 pm52 °FSunny.8 mph82%29.74 "Hg10 mi
9:20 pm52 °FSunny.8 mph82%29.74 "Hg10 mi
8:50 pm54 °FSunny.9 mph77%29.74 "Hg10 mi
8:20 pm52 °FSunny.9 mph82%29.74 "Hg10 mi
7:50 pm52 °FSunny.10 mph82%29.74 "Hg10 mi
7:20 pm54 °FSunny.13 mph77%29.74 "Hg10 mi
5:50 pm55 °FSunny.10 mph72%29.77 "Hg10 mi
5:20 pm55 °FSunny.13 mph72%29.77 "Hg10 mi
4:50 pm55 °FSunny.12 mph72%29.77 "Hg10 mi
4:20 pm55 °FSunny.12 mph72%29.77 "Hg10 mi
3:50 pm55 °FSunny.12 mph67%29.77 "Hg10 mi
3:20 pm55 °FPassing clouds.5 mph72%29.77 "HgN/A
Weather by CustomWeather, © 2021

See weather overview